Time,TemperatureF,DewpointF,PressureIn,WindDirection,WindDirectionDegrees,WindSpeedMPH,WindSpeedGustMPH,Humidity,HourlyPrecipIn,Conditions,Clouds,dailyrainin,SoftwareType,DateUTC
2013-05-24 00:02:00,34.0,20.8,30.37,NE,43,0.0,0.0,58,0.00,,---,0.00,VWS V13.01,2013-05-24 05:02:00,
2013-05-24 00:07:00,34.0,21.2,30.37,NE,43,0.0,0.0,59,0.00,,---,0.00,VWS V13.01,2013-05-24 05:07:00,
2013-05-24 00:13:00,34.0,21.2,30.37,NE,43,0.0,0.0,59,0.00,,---,0.00,VWS V13.01,2013-05-24 05:13:00,
2013-05-24 00:18:00,33.8,21.0,30.37,NE,43,0.0,0.0,59,0.00,,---,0.00,VWS V13.01,2013-05-24 05:18:00,
2013-05-24 01:08:00,33.6,20.8,30.40,NE,43,0.0,0.0,59,0.00,,---,0.00,VWS V13.01,2013-05-24 06:08:00,
2013-05-24 01:13:00,33.4,21.1,30.40,NE,43,0.0,0.0,60,0.00,,---,0.00,VWS V13.01,2013-05-24 06:13:00,
2013-05-24 01:18:00,33.1,21.1,30.40,NE,43,0.0,0.0,61,0.00,,---,0.00,VWS V13.01,2013-05-24 06:18:00,
2013-05-24 01:23:00,33.1,21.1,30.40,NE,43,0.0,0.0,61,0.00,,---,0.00,VWS V13.01,2013-05-24 06:23:00,
2013-05-24 01:28:00,32.7,20.8,30.40,NE,43,0.0,0.0,61,0.00,,---,0.00,VWS V13.01,2013-05-24 06:28:00,
2013-05-24 01:33:00,32.5,21.0,30.40,NE,43,0.0,0.0,62,0.00,,---,0.00,VWS V13.01,2013-05-24 06:33:00,
2013-05-24 01:38:00,32.7,21.1,30.40,NE,43,0.0,0.0,62,0.00,,---,0.00,VWS V13.01,2013-05-24 06:38:00,
2013-05-24 01:44:00,33.1,21.1,30.40,NE,43,0.0,0.0,61,0.00,,---,0.00,VWS V13.01,2013-05-24 06:44:00,
2013-05-24 01:49:00,33.1,21.1,30.40,NE,43,0.0,0.0,61,0.00,,---,0.00,VWS V13.01,2013-05-24 06:49:00,
2013-05-24 01:54:00,32.5,20.2,30.40,NE,43,0.0,0.0,60,0.00,,---,0.00,VWS V13.01,2013-05-24 06:54:00,
2013-05-24 01:59:00,32.4,20.0,30.40,NE,43,0.0,0.0,60,0.00,,---,0.00,VWS V13.01,2013-05-24 06:59:00,
2013-05-24 02:04:00,32.5,20.2,30.40,NE,43,0.0,0.0,60,0.00,,---,0.00,VWS V13.01,2013-05-24 07:04:00,
2013-05-24 02:09:00,32.7,20.4,30.40,NE,43,0.0,0.0,60,0.00,,---,0.00,VWS V13.01,2013-05-24 07:09:00,
2013-05-24 02:14:00,32.9,20.2,30.40,NE,43,0.0,0.0,59,0.00,,---,0.00,VWS V13.01,2013-05-24 07:14:00,
2013-05-24 02:19:00,33.1,19.9,30.40,NE,43,0.0,0.0,58,0.00,,---,0.00,VWS V13.01,2013-05-24 07:19:00,
2013-05-24 02:24:00,32.9,19.8,30.40,NE,43,0.0,0.0,58,0.00,,---,0.00,VWS V13.01,2013-05-24 07:24:00,
2013-05-24 02:29:00,33.1,19.5,30.40,NE,43,0.0,0.0,57,0.00,,---,0.00,VWS V13.01,2013-05-24 07:29:00,
2013-05-24 02:34:00,33.4,19.4,30.40,NE,43,0.0,0.0,56,0.00,,---,0.00,VWS V13.01,2013-05-24 07:34:00,
2013-05-24 02:39:00,33.1,19.1,30.40,NE,43,0.0,0.0,56,0.00,,---,0.00,VWS V13.01,2013-05-24 07:39:00,
2013-05-24 02:45:00,32.5,19.0,30.40,NE,43,0.0,0.0,57,0.00,,---,0.00,VWS V13.01,2013-05-24 07:45:00,
2013-05-24 02:50:00,32.2,19.1,30.40,NE,43,0.0,0.0,58,0.00,,---,0.00,VWS V13.01,2013-05-24 07:50:00,
2013-05-24 02:55:00,32.2,19.1,30.40,NE,43,0.0,0.0,58,0.00,,---,0.00,VWS V13.01,2013-05-24 07:55:00,
2013-05-24 03:00:00,32.5,19.4,30.40,NE,43,0.0,0.0,58,0.00,,---,0.00,VWS V13.01,2013-05-24 08:00:00,
2013-05-24 03:05:00,32.7,19.6,30.40,NE,43,0.0,0.0,58,0.00,,---,0.00,VWS V13.01,2013-05-24 08:05:00,
2013-05-24 03:10:00,32.5,19.4,30.40,NE,43,0.0,0.0,58,0.00,,---,0.00,VWS V13.01,2013-05-24 08:10:00,
2013-05-24 03:15:00,32.0,18.9,30.40,NE,43,0.0,0.0,58,0.00,,---,0.00,VWS V13.01,2013-05-24 08:15:00,
2013-05-24 03:20:00,31.8,18.7,30.40,NE,43,0.0,0.0,58,0.00,,---,0.00,VWS V13.01,2013-05-24 08:20:00,
2013-05-24 03:25:00,31.6,19.0,30.40,NE,43,0.0,0.0,59,0.00,,---,0.00,VWS V13.01,2013-05-24 08:25:00,
2013-05-24 03:31:00,31.5,19.2,30.40,NE,43,0.0,0.0,60,0.00,,---,0.00,VWS V13.01,2013-05-24 08:31:00,
2013-05-24 03:36:00,31.1,19.2,30.40,NE,43,0.0,0.0,61,0.00,,---,0.00,VWS V13.01,2013-05-24 08:36:00,
2013-05-24 03:41:00,31.1,19.6,30.40,NE,43,0.0,0.0,62,0.00,,---,0.00,VWS V13.01,2013-05-24 08:41:00,
2013-05-24 03:46:00,31.1,19.6,30.40,NE,43,0.0,0.0,62,0.00,,---,0.00,VWS V13.01,2013-05-24 08:46:00,
2013-05-24 03:51:00,31.1,19.6,30.40,NE,43,0.0,0.0,62,0.00,,---,0.00,VWS V13.01,2013-05-24 08:51:00,
2013-05-24 03:56:00,31.1,20.0,30.40,NE,43,0.0,0.0,63,0.00,,---,0.00,VWS V13.01,2013-05-24 08:56:00,
2013-05-24 04:01:00,31.1,20.4,30.40,NE,43,0.0,0.0,64,0.00,,---,0.00,VWS V13.01,2013-05-24 09:01:00,
2013-05-24 04:06:00,31.1,20.4,30.40,NE,43,0.0,0.0,64,0.00,,---,0.00,VWS V13.01,2013-05-24 09:06:00,
2013-05-24 04:11:00,30.9,20.5,30.40,NE,43,0.0,0.0,65,0.00,,---,0.00,VWS V13.01,2013-05-24 09:11:00,
2013-05-24 04:17:00,30.9,20.5,30.40,NE,43,0.0,0.0,65,0.00,,---,0.00,VWS V13.01,2013-05-24 09:17:00,
2013-05-24 04:22:00,31.1,21.1,30.40,NE,43,0.0,0.0,66,0.00,,---,0.00,VWS V13.01,2013-05-24 09:22:00,
2013-05-24 04:27:00,31.1,21.1,30.40,NE,43,0.0,0.0,66,0.00,,---,0.00,VWS V13.01,2013-05-24 09:27:00,
2013-05-24 04:32:00,30.9,20.9,30.40,NE,43,0.0,0.0,66,0.00,,---,0.00,VWS V13.01,2013-05-24 09:32:00,
2013-05-24 04:37:00,30.7,20.7,30.40,NE,43,0.0,0.0,66,0.00,,---,0.00,VWS V13.01,2013-05-24 09:37:00,
2013-05-24 04:42:00,30.6,20.6,30.40,NE,43,0.0,0.0,66,0.00,,---,0.00,VWS V13.01,2013-05-24 09:42:00,
2013-05-24 04:47:00,30.4,20.8,30.40,NE,43,0.0,0.0,67,0.00,,---,0.00,VWS V13.01,2013-05-24 09:47:00,
2013-05-24 04:52:00,30.4,21.1,30.40,NE,43,0.0,0.0,68,0.00,,---,0.00,VWS V13.01,2013-05-24 09:52:00,
2013-05-24 04:57:00,30.2,21.3,30.40,NE,43,0.0,0.0,69,0.00,,---,0.00,VWS V13.01,2013-05-24 09:57:00,
2013-05-24 05:02:00,30.2,21.3,30.40,NE,43,0.0,0.0,69,0.00,,---,0.00,VWS V13.01,2013-05-24 10:02:00,
2013-05-24 05:07:00,30.2,21.6,30.40,NE,43,0.0,0.0,70,0.00,,---,0.00,VWS V13.01,2013-05-24 10:07:00,
2013-05-24 05:12:00,30.2,21.6,30.40,NE,43,0.0,0.0,70,0.00,,---,0.00,VWS V13.01,2013-05-24 10:12:00,
2013-05-24 05:17:00,30.4,21.4,30.40,NE,43,0.0,0.0,69,0.00,,---,0.00,VWS V13.01,2013-05-24 10:17:00,
2013-05-24 05:22:00,30.6,22.0,30.40,NE,43,0.0,0.0,70,0.00,,---,0.00,VWS V13.01,2013-05-24 10:22:00,
2013-05-24 05:27:00,30.6,21.6,30.40,NE,43,0.0,0.0,69,0.00,,---,0.00,VWS V13.01,2013-05-24 10:27:00,
2013-05-24 05:32:00,30.6,21.6,30.40,NE,43,0.0,0.0,69,0.00,,---,0.00,VWS V13.01,2013-05-24 10:32:00,
2013-05-24 05:37:00,30.6,21.6,30.40,NE,43,0.0,0.0,69,0.00,,---,0.00,VWS V13.01,2013-05-24 10:37:00,
2013-05-24 05:43:00,30.6,21.6,30.40,NE,43,0.0,0.0,69,0.00,,---,0.00,VWS V13.01,2013-05-24 10:43:00,
2013-05-24 05:48:00,30.6,21.6,30.40,NE,43,0.0,0.0,69,0.00,,---,0.00,VWS V13.01,2013-05-24 10:48:00,
2013-05-24 05:53:00,30.7,22.1,30.40,NE,43,0.0,0.0,70,0.00,,---,0.00,VWS V13.01,2013-05-24 10:53:00,
2013-05-24 05:58:00,30.9,22.3,30.40,NE,43,0.0,0.0,70,0.00,,---,0.00,VWS V13.01,2013-05-24 10:58:00,
2013-05-24 06:03:00,31.1,22.5,30.40,NE,34,0.0,0.0,70,0.00,,---,0.00,VWS V13.01,2013-05-24 11:03:00,
2013-05-24 06:08:00,31.6,23.0,30.40,NE,43,0.0,0.0,70,0.00,,---,0.00,VWS V13.01,2013-05-24 11:08:00,
2013-05-24 06:13:00,32.0,23.3,30.43,NE,43,0.0,0.0,70,0.00,,---,0.00,VWS V13.01,2013-05-24 11:13:00,
2013-05-24 06:18:00,32.4,23.7,30.43,NE,43,0.0,0.0,70,0.00,,---,0.00,VWS V13.01,2013-05-24 11:18:00,
2013-05-24 06:23:00,32.7,23.7,30.43,NE,43,0.0,0.0,69,0.00,,---,0.00,VWS V13.01,2013-05-24 11:23:00,
2013-05-24 06:29:00,33.4,24.4,30.43,NE,42,0.0,0.0,69,0.00,,---,0.00,VWS V13.01,2013-05-24 11:29:00,
2013-05-24 06:34:00,34.3,24.9,30.43,NE,43,0.0,0.0,68,0.00,,---,0.00,VWS V13.01,2013-05-24 11:34:00,
2013-05-24 06:39:00,35.1,24.9,30.43,NE,42,0.0,0.0,66,0.00,,---,0.00,VWS V13.01,2013-05-24 11:39:00,
2013-05-24 06:44:00,36.0,25.0,30.43,NE,42,0.0,0.0,64,0.00,,---,0.00,VWS V13.01,2013-05-24 11:44:00,
2013-05-24 06:49:00,37.4,25.6,30.43,NE,42,0.0,0.0,62,0.00,,---,0.00,VWS V13.01,2013-05-24 11:49:00,
2013-05-24 06:54:00,38.5,25.8,30.43,NE,43,0.0,0.0,60,0.00,,---,0.00,VWS V13.01,2013-05-24 11:54:00,
2013-05-24 06:59:00,39.9,25.9,30.43,NE,43,0.0,0.0,57,0.00,,---,0.00,VWS V13.01,2013-05-24 11:59:00,
2013-05-24 07:04:00,41.7,25.9,30.43,NE,42,0.0,0.0,53,0.00,,---,0.00,VWS V13.01,2013-05-24 12:04:00,
2013-05-24 07:09:00,43.0,25.6,30.43,NE,42,0.0,0.0,50,0.00,,---,0.00,VWS V13.01,2013-05-24 12:09:00,
2013-05-24 07:14:00,43.9,26.0,30.43,NE,42,0.0,0.0,49,0.00,,---,0.00,VWS V13.01,2013-05-24 12:14:00,
2013-05-24 07:20:00,44.8,25.3,30.43,SE,146,0.0,0.0,46,0.00,,---,0.00,VWS V13.01,2013-05-24 12:20:00,
2013-05-24 07:25:00,45.3,23.6,30.43,SE,146,0.0,0.0,42,0.00,,---,0.00,VWS V13.01,2013-05-24 12:25:00,
2013-05-24 07:30:00,45.9,22.3,30.43,SE,146,0.0,0.0,39,0.00,,---,0.00,VWS V13.01,2013-05-24 12:30:00,
2013-05-24 07:35:00,46.0,22.5,30.43,SE,146,0.0,0.0,39,0.00,,---,0.00,VWS V13.01,2013-05-24 12:35:00,
2013-05-24 07:40:00,46.2,22.6,30.43,SE,146,0.0,0.0,39,0.00,,---,0.00,VWS V13.01,2013-05-24 12:40:00,
2013-05-24 07:45:00,46.4,22.2,30.43,SE,146,0.0,0.0,38,0.00,,---,0.00,VWS V13.01,2013-05-24 12:45:00,
2013-05-24 07:50:00,46.6,22.4,30.43,South,191,0.0,0.0,38,0.00,,---,0.00,VWS V13.01,2013-05-24 12:50:00,
2013-05-24 07:55:00,46.6,22.4,30.43,SE,142,0.0,0.0,38,0.00,,---,0.00,VWS V13.01,2013-05-24 12:55:00,
2013-05-24 08:01:00,46.9,22.7,30.43,SE,129,0.0,0.0,38,0.00,,---,0.00,VWS V13.01,2013-05-24 13:01:00,
2013-05-24 08:06:00,47.3,23.0,30.43,South,180,0.0,0.0,38,0.00,,---,0.00,VWS V13.01,2013-05-24 13:06:00,
2013-05-24 08:11:00,48.0,23.6,30.43,SSE,156,4.0,4.7,38,0.00,,---,0.00,VWS V13.01,2013-05-24 13:11:00,
2013-05-24 08:16:00,48.4,23.3,30.46,SSW,196,0.0,0.0,37,0.00,,---,0.00,VWS V13.01,2013-05-24 13:16:00,
2013-05-24 08:21:00,48.4,23.3,30.46,SW,218,0.0,0.0,37,0.00,,---,0.00,VWS V13.01,2013-05-24 13:21:00,
2013-05-24 08:26:00,48.4,23.3,30.46,SE,141,0.0,3.6,37,0.00,,---,0.00,VWS V13.01,2013-05-24 13:26:00,
2013-05-24 08:31:00,48.6,23.5,30.46,WSW,241,3.1,3.1,37,0.00,,---,0.00,VWS V13.01,2013-05-24 13:31:00,
2013-05-24 08:36:00,49.3,24.1,30.46,WSW,241,0.0,0.0,37,0.00,,---,0.00,VWS V13.01,2013-05-24 13:36:00,
2013-05-24 08:41:00,49.8,24.0,30.46,ESE,116,0.0,0.0,36,0.00,,---,0.00,VWS V13.01,2013-05-24 13:41:00,
2013-05-24 08:46:00,50.2,24.3,30.46,SW,230,4.0,4.0,36,0.00,,---,0.00,VWS V13.01,2013-05-24 13:46:00,
2013-05-24 08:52:00,50.4,23.1,30.46,WSW,239,3.6,6.0,34,0.00,,---,0.00,VWS V13.01,2013-05-24 13:52:00,
2013-05-24 08:57:00,50.5,23.2,30.46,WSW,239,0.0,5.6,34,0.00,,---,0.00,VWS V13.01,2013-05-24 13:57:00,
2013-05-24 09:02:00,50.9,22.8,30.46,WSW,250,0.0,0.0,33,0.00,,---,0.00,VWS V13.01,2013-05-24 14:02:00,
2013-05-24 09:07:00,51.4,22.6,30.46,SW,218,3.1,4.7,32,0.00,,---,0.00,VWS V13.01,2013-05-24 14:07:00,
2013-05-24 09:12:00,51.6,22.7,30.43,SW,222,4.7,4.7,32,0.00,,---,0.00,VWS V13.01,2013-05-24 14:12:00,
2013-05-24 09:17:00,51.8,22.1,30.43,SSW,206,4.7,4.7,31,0.00,,---,0.00,VWS V13.01,2013-05-24 14:17:00,
2013-05-24 09:22:00,52.3,23.4,30.43,SSW,208,0.0,0.0,32,0.00,,---,0.00,VWS V13.01,2013-05-24 14:22:00,
2013-05-24 09:27:00,53.1,24.0,30.43,SSW,203,6.0,6.0,32,0.00,,---,0.00,VWS V13.01,2013-05-24 14:27:00,
2013-05-24 09:32:00,53.2,24.2,30.43,South,188,6.5,6.5,32,0.00,,---,0.00,VWS V13.01,2013-05-24 14:32:00,
2013-05-24 09:38:00,53.2,24.2,30.43,SSW,194,6.0,6.9,32,0.00,,---,0.00,VWS V13.01,2013-05-24 14:38:00,
2013-05-24 09:43:00,53.4,25.1,30.43,SSE,164,4.0,5.6,33,0.00,,---,0.00,VWS V13.01,2013-05-24 14:43:00,
2013-05-24 09:48:00,54.0,24.0,30.43,SE,139,5.1,5.1,31,0.00,,---,0.00,VWS V13.01,2013-05-24 14:48:00,
2013-05-24 09:53:00,54.1,24.2,30.43,South,175,6.0,6.0,31,0.00,,---,0.00,VWS V13.01,2013-05-24 14:53:00,
2013-05-24 09:58:00,54.1,24.2,30.43,SSE,159,4.5,4.5,31,0.00,,---,0.00,VWS V13.01,2013-05-24 14:58:00,
2013-05-24 10:03:00,54.7,23.1,30.43,SE,139,4.7,5.1,29,0.00,,---,0.00,VWS V13.01,2013-05-24 15:03:00,
2013-05-24 10:08:00,55.0,23.4,30.43,SE,129,3.1,3.1,29,0.00,,---,0.00,VWS V13.01,2013-05-24 15:08:00,
2013-05-24 10:13:00,55.4,23.7,30.43,SSW,209,4.5,5.1,29,0.00,,---,0.00,VWS V13.01,2013-05-24 15:13:00,
2013-05-24 10:18:00,55.9,24.2,30.43,SSE,160,4.5,4.7,29,0.00,,---,0.00,VWS V13.01,2013-05-24 15:18:00,
2013-05-24 10:24:00,56.3,24.5,30.43,South,170,5.6,5.6,29,0.00,,---,0.00,VWS V13.01,2013-05-24 15:24:00,
2013-05-24 10:29:00,56.7,24.8,30.43,SSE,164,5.6,7.4,29,0.00,,---,0.00,VWS V13.01,2013-05-24 15:29:00,
2013-05-24 10:34:00,56.7,24.0,30.43,ESE,115,4.0,4.0,28,0.00,,---,0.00,VWS V13.01,2013-05-24 15:34:00,
2013-05-24 10:39:00,56.7,24.0,30.43,ESE,105,4.5,4.7,28,0.00,,---,0.00,VWS V13.01,2013-05-24 15:39:00,
2013-05-24 10:44:00,57.0,24.3,30.43,NE,56,0.0,0.0,28,0.00,,---,0.00,VWS V13.01,2013-05-24 15:44:00,
2013-05-24 10:49:00,57.6,24.7,30.43,South,173,3.6,4.7,28,0.00,,---,0.00,VWS V13.01,2013-05-24 15:49:00,
2013-05-24 10:54:00,57.9,24.2,30.43,South,182,4.5,5.1,27,0.00,,---,0.00,VWS V13.01,2013-05-24 15:54:00,
2013-05-24 10:59:00,57.6,23.9,30.40,West,266,6.0,6.0,27,0.00,,---,0.00,VWS V13.01,2013-05-24 15:59:00,
2013-05-24 11:05:00,57.4,24.6,30.40,SE,141,6.0,6.5,28,0.00,,---,0.00,VWS V13.01,2013-05-24 16:05:00,
2013-05-24 11:10:00,57.9,24.2,30.40,South,179,6.0,6.0,27,0.00,,---,0.00,VWS V13.01,2013-05-24 16:10:00,
2013-05-24 11:15:00,57.9,24.2,30.40,SSW,198,5.1,5.1,27,0.00,,---,0.00,VWS V13.01,2013-05-24 16:15:00,
2013-05-24 11:20:00,58.3,24.5,30.40,SSE,156,4.5,6.0,27,0.00,,---,0.00,VWS V13.01,2013-05-24 16:20:00,
2013-05-24 11:25:00,58.3,24.5,30.40,East,87,4.0,4.7,27,0.00,,---,0.00,VWS V13.01,2013-05-24 16:25:00,
2013-05-24 11:30:00,58.6,24.8,30.40,ENE,73,5.1,5.1,27,0.00,,---,0.00,VWS V13.01,2013-05-24 16:30:00,
2013-05-24 11:35:00,59.2,25.2,30.40,SE,130,3.1,6.0,27,0.00,,---,0.00,VWS V13.01,2013-05-24 16:35:00,
2013-05-24 11:40:00,59.4,25.4,30.40,South,181,4.7,8.3,27,0.00,,---,0.00,VWS V13.01,2013-05-24 16:40:00,
2013-05-24 11:45:00,60.1,26.0,30.40,South,177,5.1,5.1,27,0.00,,---,0.00,VWS V13.01,2013-05-24 16:45:00,
2013-05-24 11:50:00,60.1,25.1,30.40,North,357,0.0,3.6,26,0.00,,---,0.00,VWS V13.01,2013-05-24 16:50:00,
2013-05-24 11:55:00,60.3,25.3,30.40,ENE,69,3.1,9.8,26,0.00,,---,0.00,VWS V13.01,2013-05-24 16:55:00,
2013-05-24 12:00:00,60.3,25.3,30.40,South,169,4.7,5.1,26,0.00,,---,0.00,VWS V13.01,2013-05-24 17:00:00,
2013-05-24 12:05:00,60.3,25.3,30.40,SSE,156,3.6,4.5,26,0.00,,---,0.00,VWS V13.01,2013-05-24 17:05:00,
2013-05-24 12:10:00,60.1,25.1,30.40,SSE,150,2.7,5.1,26,0.00,,---,0.00,VWS V13.01,2013-05-24 17:10:00,
2013-05-24 12:15:00,60.1,25.1,30.40,SSE,149,5.6,5.6,26,0.00,,---,0.00,VWS V13.01,2013-05-24 17:15:00,
2013-05-24 12:20:00,60.6,25.6,30.40,WSW,239,6.0,6.9,26,0.00,,---,0.00,VWS V13.01,2013-05-24 17:20:00,
2013-05-24 12:25:00,61.0,24.9,30.40,WSW,253,3.1,3.6,25,0.00,,---,0.00,VWS V13.01,2013-05-24 17:25:00,
2013-05-24 12:30:00,61.3,25.2,30.40,SE,131,6.0,6.0,25,0.00,,---,0.00,VWS V13.01,2013-05-24 17:30:00,
2013-05-24 12:35:00,61.3,25.2,30.40,SW,226,4.5,4.7,25,0.00,,---,0.00,VWS V13.01,2013-05-24 17:35:00,
2013-05-24 12:40:00,61.3,25.2,30.40,SSE,155,5.6,7.4,25,0.00,,---,0.00,VWS V13.01,2013-05-24 17:40:00,
2013-05-24 12:45:00,61.9,25.7,30.37,South,171,6.0,6.5,25,0.00,,---,0.00,VWS V13.01,2013-05-24 17:45:00,
2013-05-24 12:50:00,61.9,25.7,30.37,South,174,5.6,5.6,25,0.00,,---,0.00,VWS V13.01,2013-05-24 17:50:00,
2013-05-24 12:55:00,61.9,25.7,30.37,NW,309,3.1,6.0,25,0.00,,---,0.00,VWS V13.01,2013-05-24 17:55:00,
2013-05-24 13:00:00,61.9,25.7,30.37,SSE,157,4.5,6.0,25,0.00,,---,0.00,VWS V13.01,2013-05-24 18:00:00,
2013-05-24 13:05:00,62.2,26.0,30.37,SSW,212,6.9,6.9,25,0.00,,---,0.00,VWS V13.01,2013-05-24 18:05:00,
2013-05-24 13:10:00,62.8,25.5,30.37,West,275,0.0,3.6,24,0.00,,---,0.00,VWS V13.01,2013-05-24 18:10:00,
2013-05-24 13:15:00,63.1,25.8,30.37,ENE,70,4.7,5.6,24,0.00,,---,0.00,VWS V13.01,2013-05-24 18:15:00,
2013-05-24 13:20:00,63.1,25.8,30.37,SSW,212,3.6,5.6,24,0.00,,---,0.00,VWS V13.01,2013-05-24 18:20:00,
2013-05-24 13:25:00,63.1,25.8,30.37,East,88,4.0,4.5,24,0.00,,---,0.00,VWS V13.01,2013-05-24 18:25:00,
2013-05-24 13:30:00,63.3,25.9,30.37,ESE,123,2.7,6.0,24,0.00,,---,0.00,VWS V13.01,2013-05-24 18:30:00,
2013-05-24 13:35:00,63.7,26.2,30.37,SE,143,4.0,5.6,24,0.00,,---,0.00,VWS V13.01,2013-05-24 18:35:00,
2013-05-24 13:40:00,64.0,26.5,30.37,South,183,6.5,6.5,24,0.00,,---,0.00,VWS V13.01,2013-05-24 18:40:00,
2013-05-24 13:45:00,64.0,26.5,30.35,SSW,198,3.6,5.6,24,0.00,,---,0.00,VWS V13.01,2013-05-24 18:45:00,
2013-05-24 13:50:00,63.7,26.2,30.35,SSE,166,0.0,2.7,24,0.00,,---,0.00,VWS V13.01,2013-05-24 18:50:00,
2013-05-24 13:55:00,64.4,26.9,30.35,South,186,4.5,5.1,24,0.00,,---,0.00,VWS V13.01,2013-05-24 18:55:00,
2013-05-24 14:00:00,65.1,27.5,30.35,SSE,160,4.5,6.0,24,0.00,,---,0.00,VWS V13.01,2013-05-24 19:00:00,
2013-05-24 14:05:00,65.3,27.6,30.35,SW,216,4.7,6.5,24,0.00,,---,0.00,VWS V13.01,2013-05-24 19:05:00,
2013-05-24 14:10:00,66.0,27.2,30.35,East,91,3.1,4.7,23,0.00,,---,0.00,VWS V13.01,2013-05-24 19:10:00,
2013-05-24 14:15:00,66.0,27.2,30.35,South,187,5.6,6.0,23,0.00,,---,0.00,VWS V13.01,2013-05-24 19:15:00,
2013-05-24 14:20:00,66.2,27.3,30.35,SSW,206,6.0,8.3,23,0.00,,---,0.00,VWS V13.01,2013-05-24 19:20:00,
2013-05-24 14:25:00,66.0,27.2,30.35,SW,220,0.0,5.1,23,0.00,,---,0.00,VWS V13.01,2013-05-24 19:25:00,
2013-05-24 14:30:00,66.0,27.2,30.35,WNW,286,0.0,4.0,23,0.00,,---,0.00,VWS V13.01,2013-05-24 19:30:00,
2013-05-24 14:35:00,66.4,27.5,30.35,East,95,3.6,3.6,23,0.00,,---,0.00,VWS V13.01,2013-05-24 19:35:00,
2013-05-24 14:40:00,66.4,27.5,30.35,SSW,205,2.7,5.6,23,0.00,,---,0.00,VWS V13.01,2013-05-24 19:40:00,
2013-05-24 14:46:00,66.9,27.9,30.32,SSE,157,4.5,5.1,23,0.00,,---,0.00,VWS V13.01,2013-05-24 19:46:00,
2013-05-24 14:51:00,66.6,27.6,30.32,SSW,211,5.6,6.0,23,0.00,,---,0.00,VWS V13.01,2013-05-24 19:51:00,
2013-05-24 14:56:00,66.4,27.5,30.32,SW,225,8.9,8.9,23,0.00,,---,0.00,VWS V13.01,2013-05-24 19:56:00,
2013-05-24 15:01:00,66.4,27.5,30.32,WSW,248,3.1,3.1,23,0.00,,---,0.00,VWS V13.01,2013-05-24 20:01:00,
2013-05-24 15:06:00,66.7,27.8,30.32,South,188,3.6,3.6,23,0.00,,---,0.00,VWS V13.01,2013-05-24 20:06:00,
2013-05-24 15:11:00,67.1,28.1,30.32,ENE,71,3.6,5.1,23,0.00,,---,0.00,VWS V13.01,2013-05-24 20:11:00,
2013-05-24 15:16:00,66.7,27.8,30.32,ENE,57,5.6,5.6,23,0.00,,---,0.00,VWS V13.01,2013-05-24 20:16:00,
2013-05-24 15:21:00,66.2,27.3,30.32,SE,137,4.5,6.0,23,0.00,,---,0.00,VWS V13.01,2013-05-24 20:21:00,
2013-05-24 15:26:00,65.7,27.9,30.32,NE,49,5.6,7.4,24,0.00,,---,0.00,VWS V13.01,2013-05-24 20:26:00,
2013-05-24 15:31:00,65.1,27.5,30.32,East,88,4.7,4.7,24,0.00,,---,0.00,VWS V13.01,2013-05-24 20:31:00,
2013-05-24 15:36:00,65.3,27.6,30.32,SE,125,0.0,4.0,24,0.00,,---,0.00,VWS V13.01,2013-05-24 20:36:00,
2013-05-24 15:42:00,64.4,26.9,30.32,ESE,103,4.0,4.0,24,0.00,,---,0.00,VWS V13.01,2013-05-24 20:42:00,
2013-05-24 15:47:00,63.7,26.2,30.32,ENE,71,5.6,5.6,24,0.00,,---,0.00,VWS V13.01,2013-05-24 20:47:00,
2013-05-24 15:52:00,63.0,25.6,30.32,ESE,103,5.6,5.6,24,0.00,,---,0.00,VWS V13.01,2013-05-24 20:52:00,
2013-05-24 15:57:00,62.8,25.5,30.29,ENE,64,5.6,6.5,24,0.00,,---,0.00,VWS V13.01,2013-05-24 20:57:00,
2013-05-24 16:02:00,62.4,26.2,30.29,East,97,4.7,4.7,25,0.00,,---,0.00,VWS V13.01,2013-05-24 21:02:00,
2013-05-24 16:07:00,62.4,26.2,30.29,East,88,3.6,5.6,25,0.00,,---,0.00,VWS V13.01,2013-05-24 21:07:00,
2013-05-24 16:12:00,62.2,26.0,30.29,ENE,60,3.6,5.1,25,0.00,,---,0.00,VWS V13.01,2013-05-24 21:12:00,
2013-05-24 16:17:00,62.1,25.9,30.29,East,89,3.6,5.1,25,0.00,,---,0.00,VWS V13.01,2013-05-24 21:17:00,
2013-05-24 16:22:00,61.3,25.2,30.29,ENE,59,4.0,6.0,25,0.00,,---,0.00,VWS V13.01,2013-05-24 21:22:00,
2013-05-24 16:27:00,60.3,24.3,30.29,NE,43,5.1,5.6,25,0.00,,---,0.00,VWS V13.01,2013-05-24 21:27:00,
2013-05-24 16:32:00,58.8,24.0,30.29,ENE,74,4.7,4.7,26,0.00,,---,0.00,VWS V13.01,2013-05-24 21:32:00,
2013-05-24 16:37:00,57.6,23.0,30.29,ENE,74,4.7,6.5,26,0.00,,---,0.00,VWS V13.01,2013-05-24 21:37:00,
2013-05-24 16:43:00,56.3,21.9,30.29,ENE,76,4.0,6.0,26,0.00,,---,0.00,VWS V13.01,2013-05-24 21:43:00,
2013-05-24 16:48:00,55.8,22.3,30.29,NE,36,6.5,7.4,27,0.00,,---,0.00,VWS V13.01,2013-05-24 21:48:00,
2013-05-24 16:53:00,55.2,21.8,30.29,ENE,76,4.0,4.0,27,0.00,,---,0.00,VWS V13.01,2013-05-24 21:53:00,
2013-05-24 16:58:00,54.9,21.5,30.29,NE,56,6.5,6.9,27,0.00,,---,0.00,VWS V13.01,2013-05-24 21:58:00,
2013-05-24 17:03:00,54.3,21.9,30.29,ENE,58,4.0,4.0,28,0.00,,---,0.00,VWS V13.01,2013-05-24 22:03:00,
2013-05-24 17:08:00,54.3,21.9,30.29,East,95,4.5,6.0,28,0.00,,---,0.00,VWS V13.01,2013-05-24 22:08:00,
2013-05-24 17:13:00,54.3,21.9,30.29,NE,45,5.1,5.1,28,0.00,,---,0.00,VWS V13.01,2013-05-24 22:13:00,
2013-05-24 17:18:00,54.0,21.6,30.29,ENE,76,4.5,6.0,28,0.00,,---,0.00,VWS V13.01,2013-05-24 22:18:00,
2013-05-24 17:23:00,53.4,22.0,30.29,NE,47,6.9,6.9,29,0.00,,---,0.00,VWS V13.01,2013-05-24 22:23:00,
2013-05-24 17:28:00,53.1,21.7,30.29,NE,49,5.1,5.1,29,0.00,,---,0.00,VWS V13.01,2013-05-24 22:28:00,
2013-05-24 17:33:00,52.9,21.5,30.29,ENE,67,5.1,5.1,29,0.00,,---,0.00,VWS V13.01,2013-05-24 22:33:00,
2013-05-24 17:38:00,52.7,21.4,30.29,NE,43,4.0,4.0,29,0.00,,---,0.00,VWS V13.01,2013-05-24 22:38:00,
2013-05-24 17:43:00,52.7,21.4,30.29,NE,51,6.0,6.0,29,0.00,,---,0.00,VWS V13.01,2013-05-24 22:43:00,
2013-05-24 17:48:00,52.7,21.4,30.29,NE,34,5.6,7.8,29,0.00,,---,0.00,VWS V13.01,2013-05-24 22:48:00,
2013-05-24 17:53:00,52.5,21.2,30.29,NNE,32,6.9,6.9,29,0.00,,---,0.00,VWS V13.01,2013-05-24 22:53:00,
2013-05-24 17:59:00,52.5,21.2,30.32,NE,46,5.6,6.0,29,0.00,,---,0.00,VWS V13.01,2013-05-24 22:59:00,
2013-05-24 18:04:00,52.7,21.4,30.32,NE,50,6.5,6.9,29,0.00,,---,0.00,VWS V13.01,2013-05-24 23:04:00,
2013-05-24 18:09:00,52.5,21.2,30.32,East,87,4.7,4.7,29,0.00,,---,0.00,VWS V13.01,2013-05-24 23:09:00,
2013-05-24 18:14:00,52.5,21.2,30.32,NNE,18,2.7,4.0,29,0.00,,---,0.00,VWS V13.01,2013-05-24 23:14:00,
2013-05-24 18:19:00,52.3,21.0,30.32,NNE,21,4.7,4.7,29,0.00,,---,0.00,VWS V13.01,2013-05-24 23:19:00,
2013-05-24 18:24:00,52.0,20.7,30.32,NNE,24,3.6,4.0,29,0.00,,---,0.00,VWS V13.01,2013-05-24 23:24:00,
2013-05-24 18:29:00,52.0,20.7,30.32,ENE,69,5.1,5.1,29,0.00,,---,0.00,VWS V13.01,2013-05-24 23:29:00,
2013-05-24 18:34:00,52.0,20.7,30.32,ENE,74,2.7,3.6,29,0.00,,---,0.00,VWS V13.01,2013-05-24 23:34:00,
2013-05-24 18:39:00,52.0,20.7,30.32,NE,49,3.6,6.0,29,0.00,,---,0.00,VWS V13.01,2013-05-24 23:39:00,
2013-05-24 18:45:00,52.0,20.7,30.32,East,86,3.6,4.7,29,0.00,,---,0.00,VWS V13.01,2013-05-24 23:45:00,
2013-05-24 18:50:00,52.0,20.7,30.32,NE,46,3.6,5.1,29,0.00,,---,0.00,VWS V13.01,2013-05-24 23:50:00,
2013-05-24 18:55:00,52.0,20.7,30.32,NE,41,6.9,7.8,29,0.00,,---,0.00,VWS V13.01,2013-05-24 23:55:00,
2013-05-24 19:00:00,51.8,20.6,30.32,NE,37,4.7,5.6,29,0.00,,---,0.00,VWS V13.01,2013-05-25 00:00:00,
2013-05-24 19:05:00,51.8,20.6,30.32,NE,50,3.6,4.5,29,0.00,,---,0.00,VWS V13.01,2013-05-25 00:05:00,
2013-05-24 19:10:00,52.0,20.7,30.32,North,8,4.0,4.0,29,0.00,,---,0.00,VWS V13.01,2013-05-25 00:10:00,
2013-05-24 19:15:00,52.2,20.9,30.32,NNE,14,4.7,6.5,29,0.00,,---,0.00,VWS V13.01,2013-05-25 00:15:00,
2013-05-24 19:20:00,52.2,20.9,30.32,North,10,3.1,3.6,29,0.00,,---,0.00,VWS V13.01,2013-05-25 00:20:00,
2013-05-24 19:25:00,52.0,20.7,30.32,NNE,13,0.0,0.0,29,0.00,,---,0.00,VWS V13.01,2013-05-25 00:25:00,
2013-05-24 19:30:00,52.0,20.7,30.32,NNE,14,0.0,0.0,29,0.00,,---,0.00,VWS V13.01,2013-05-25 00:30:00,
2013-05-24 19:35:00,51.8,20.6,30.32,East,79,0.0,2.7,29,0.00,,---,0.00,VWS V13.01,2013-05-25 00:35:00,
2013-05-24 19:40:00,51.8,20.6,30.32,ENE,78,0.0,0.0,29,0.00,,---,0.00,VWS V13.01,2013-05-25 00:40:00,
2013-05-24 19:45:00,51.8,20.6,30.32,ENE,78,0.0,0.0,29,0.00,,---,0.00,VWS V13.01,2013-05-25 00:45:00,
2013-05-24 19:50:00,51.6,21.2,30.32,ENE,78,0.0,0.0,30,0.00,,---,0.00,VWS V13.01,2013-05-25 00:50:00,
2013-05-24 19:55:00,51.6,21.2,30.32,ENE,78,0.0,0.0,30,0.00,,---,0.00,VWS V13.01,2013-05-25 00:55:00,
2013-05-24 20:01:00,51.6,21.2,30.32,ENE,78,0.0,0.0,30,0.00,,---,0.00,VWS V13.01,2013-05-25 01:01:00,
2013-05-24 20:06:00,51.6,21.2,30.32,ENE,78,0.0,0.0,30,0.00,,---,0.00,VWS V13.01,2013-05-25 01:06:00,
2013-05-24 20:11:00,51.4,21.1,30.32,ENE,78,0.0,0.0,30,0.00,,---,0.00,VWS V13.01,2013-05-25 01:11:00,
2013-05-24 20:16:00,51.3,20.9,30.32,ENE,78,0.0,0.0,30,0.00,,---,0.00,VWS V13.01,2013-05-25 01:16:00,
2013-05-24 20:21:00,51.3,20.9,30.32,ENE,78,0.0,0.0,30,0.00,,---,0.00,VWS V13.01,2013-05-25 01:21:00,
2013-05-24 20:26:00,51.1,20.8,30.32,ENE,78,0.0,0.0,30,0.00,,---,0.00,VWS V13.01,2013-05-25 01:26:00,
2013-05-24 20:31:00,50.7,21.2,30.29,ENE,78,0.0,0.0,31,0.00,,---,0.00,VWS V13.01,2013-05-25 01:31:00,
2013-05-24 20:36:00,50.4,20.9,30.29,East,79,0.0,0.0,31,0.00,,---,0.00,VWS V13.01,2013-05-25 01:36:00,
2013-05-24 20:41:00,50.2,21.5,30.29,ENE,78,0.0,0.0,32,0.00,,---,0.00,VWS V13.01,2013-05-25 01:41:00,
2013-05-24 20:46:00,49.6,22.4,30.32,ENE,78,0.0,0.0,34,0.00,,---,0.00,VWS V13.01,2013-05-25 01:46:00,
2013-05-24 20:51:00,49.3,22.8,30.32,NNW,332,0.0,0.0,35,0.00,,---,0.00,VWS V13.01,2013-05-25 01:51:00,
2013-05-24 20:57:00,48.9,22.5,30.32,NNW,332,0.0,0.0,35,0.00,,---,0.00,VWS V13.01,2013-05-25 01:57:00,
2013-05-24 21:02:00,48.7,23.0,30.32,NNW,332,0.0,0.0,36,0.00,,---,0.00,VWS V13.01,2013-05-25 02:02:00,
2013-05-24 21:07:00,48.2,23.2,30.32,NNW,332,0.0,0.0,37,0.00,,---,0.00,VWS V13.01,2013-05-25 02:07:00,
2013-05-24 21:12:00,47.8,23.5,30.29,NNW,332,0.0,0.0,38,0.00,,---,0.00,VWS V13.01,2013-05-25 02:12:00,
2013-05-24 21:17:00,47.5,23.2,30.29,NNW,332,0.0,0.0,38,0.00,,---,0.00,VWS V13.01,2013-05-25 02:17:00,
2013-05-24 21:22:00,46.9,22.7,30.29,NNW,332,0.0,0.0,38,0.00,,---,0.00,VWS V13.01,2013-05-25 02:22:00,
2013-05-24 21:27:00,46.6,23.0,30.32,NNW,332,0.0,0.0,39,0.00,,---,0.00,VWS V13.01,2013-05-25 02:27:00,
2013-05-24 21:32:00,46.2,23.2,30.32,NNW,332,0.0,0.0,40,0.00,,---,0.00,VWS V13.01,2013-05-25 02:32:00,
2013-05-24 21:37:00,46.0,23.1,30.32,NNW,332,0.0,0.0,40,0.00,,---,0.00,VWS V13.01,2013-05-25 02:37:00,
2013-05-24 21:42:00,45.5,23.2,30.32,NNW,332,0.0,0.0,41,0.00,,---,0.00,VWS V13.01,2013-05-25 02:42:00,
2013-05-24 21:47:00,45.0,23.3,30.32,NNW,332,0.0,0.0,42,0.00,,---,0.00,VWS V13.01,2013-05-25 02:47:00,
2013-05-24 21:52:00,44.6,23.5,30.32,NNW,332,0.0,0.0,43,0.00,,---,0.00,VWS V13.01,2013-05-25 02:52:00,
2013-05-24 21:57:00,44.1,23.6,30.32,NNW,332,0.0,0.0,44,0.00,,---,0.00,VWS V13.01,2013-05-25 02:57:00,
2013-05-24 22:02:00,43.5,23.6,30.32,NNW,333,0.0,0.0,45,0.00,,---,0.00,VWS V13.01,2013-05-25 03:02:00,
2013-05-24 22:07:00,43.5,24.1,30.32,NNW,333,0.0,0.0,46,0.00,,---,0.00,VWS V13.01,2013-05-25 03:07:00,
2013-05-24 22:13:00,43.5,24.6,30.32,NNW,332,0.0,0.0,47,0.00,,---,0.00,VWS V13.01,2013-05-25 03:13:00,
2013-05-24 22:18:00,43.7,24.3,30.32,NNW,332,0.0,0.0,46,0.00,,---,0.00,VWS V13.01,2013-05-25 03:18:00,
2013-05-24 22:23:00,43.7,24.3,30.32,NNW,333,0.0,0.0,46,0.00,,---,0.00,VWS V13.01,2013-05-25 03:23:00,
2013-05-24 22:28:00,43.5,24.1,30.32,NNW,332,0.0,0.0,46,0.00,,---,0.00,VWS V13.01,2013-05-25 03:28:00,
2013-05-24 22:33:00,43.5,24.6,30.32,NNW,333,0.0,0.0,47,0.00,,---,0.00,VWS V13.01,2013-05-25 03:33:00,
2013-05-24 22:38:00,43.7,24.3,30.32,NNW,332,0.0,0.0,46,0.00,,---,0.00,VWS V13.01,2013-05-25 03:38:00,
2013-05-24 22:43:00,44.1,24.6,30.32,NNW,332,0.0,0.0,46,0.00,,---,0.00,VWS V13.01,2013-05-25 03:43:00,
2013-05-24 22:48:00,44.1,24.1,30.32,NNW,332,0.0,0.0,45,0.00,,---,0.00,VWS V13.01,2013-05-25 03:48:00,
2013-05-24 22:53:00,44.1,24.1,30.32,NNW,332,0.0,0.0,45,0.00,,---,0.00,VWS V13.01,2013-05-25 03:53:00,
2013-05-24 22:58:00,44.2,24.3,30.32,NNW,332,0.0,0.0,45,0.00,,---,0.00,VWS V13.01,2013-05-25 03:58:00,
2013-05-24 23:01:00,44.2,24.3,30.32,NNW,332,0.0,0.0,45,0.00,,---,0.00,VWS V13.01,2013-05-25 04:01:00,
2013-05-24 23:02:00,44.2,24.3,30.32,NNW,332,0.0,0.0,45,0.00,,---,0.00,VWS V13.01,2013-05-25 04:02:00,
2013-05-24 23:07:00,44.6,22.9,30.32,NNW,332,0.0,0.0,42,0.00,,---,0.00,VWS V13.01,2013-05-25 04:07:00,
2013-05-24 23:12:00,45.5,23.2,30.32,NNW,332,0.0,0.0,41,0.00,,---,0.00,VWS V13.01,2013-05-25 04:12:00,
2013-05-24 23:17:00,46.0,23.7,30.32,NNW,332,0.0,0.0,41,0.00,,---,0.00,VWS V13.01,2013-05-25 04:17:00,
2013-05-24 23:22:00,46.2,23.2,30.32,NNW,332,0.0,0.0,40,0.00,,---,0.00,VWS V13.01,2013-05-25 04:22:00,
2013-05-24 23:27:00,46.4,22.8,30.32,NNW,332,0.0,0.0,39,0.00,,---,0.00,VWS V13.01,2013-05-25 04:27:00,
2013-05-24 23:32:00,46.2,23.2,30.32,NNW,332,0.0,0.0,40,0.00,,---,0.00,VWS V13.01,2013-05-25 04:32:00,
2013-05-24 23:37:00,45.9,23.5,30.32,NNW,333,0.0,0.0,41,0.00,,---,0.00,VWS V13.01,2013-05-25 04:37:00,
2013-05-24 23:42:00,45.1,22.9,30.32,NNW,332,0.0,0.0,41,0.00,,---,0.00,VWS V13.01,2013-05-25 04:42:00,
2013-05-24 23:47:00,45.0,22.7,30.32,NNW,333,0.0,0.0,41,0.00,,---,0.00,VWS V13.01,2013-05-25 04:47:00,
2013-05-24 23:52:00,44.6,22.9,30.32,NNW,332,0.0,0.0,42,0.00,,---,0.00,VWS V13.01,2013-05-25 04:52:00,
2013-05-24 23:57:00,44.4,23.3,30.32,NNW,332,0.0,0.0,43,0.00,,---,0.00,VWS V13.01,2013-05-25 04:57:00,